Find Starlink 34674

NORAD ID: 65526 Int'l Des: 2025-200 Owner: SPXS Country: US Constellation: starlink operational
LEOCIRCULARRETROGRADESSO

Live Position

Loading 3D Globe...

About Starlink 34674

Description loading...

Upcoming Passes

Passes for default location (London). Set your location on the main map for personalized predictions.

Altitude History

Loading altitude history...

Two-Line Element Set

1 65526U 25200G 26103.91099132 .00007054 00000-0 49243-3 0 9990
2 65526 97.6013 174.5646 0000945 184.4757 175.6461 15.05660872 34444
Epoch: Apr 13, 2026 • Age: 11 hours

Current Status

Altitude 570.7 km
Velocity 7.57 km/s
Sub-Earth Point -53.66°S, 148.96°W
Launch Date Sep 6, 2025
Age 0.5 years
Type internet

Technical Details

Classification Payload
Mass 575.00 kg
Dry Mass 530.00 kg
Total Mass 575.00 kg
Length 0.30 m
Diameter 4.10 m
Span 29.00 m
Shape Box + pan
Manufacturer SPXS
Bus Type Starlink V2MO
Phase Status In Orbit
Owner/State SPXS/US

Most Searched